Flag for U.S.A. Weather past 2 weeks in Prescott, Arizona, U.S.A.

Now
90 °F

Partly sunny.


Feels Like: 87 °F
Forecast: 71 / 91 °F
Wind: N/A

Location: Love Field

Current Time: Jul 24, 2014 at 11:37:09 AM

Latest Report: Jul 24, 2014 at 10:53 AM


Visibility: 10 mi

Pressure: 29.89 "Hg

Humidity: 26%

Dew point: 51 °F

Location of PrescottLocation

Historic Weather in Prescott — Graph

°F

Prescott temperature yesterday

Maximum temperature yesterday: 96 °F (at 1:53 PM)
Minimum temperature yesterday: 69 °F (at 1:53 AM)
Average temperature yesterday: 84 °F

Past Weeks' High & Low Weather Summary

 TemperatureHumidityPressure
High96 °F (Jul 23, 1:53 PM)87% (Jul 10, 9:53 PM)30.11 "Hg (Jul 10, 9:53 PM)
Low61 °F (Jul 11, 5:53 AM)12% (Jul 17, 5:53 PM)29.77 "Hg (Jul 17, 4:53 PM)
Average77 °F39%29.91 "Hg
* Reported Jul 9 9:53 AM — Jul 24 9:53 AM, Prescott, Weather by CustomWeather, © 2014

Note: Actual official high and low records may vary slightly from our data, if they occured in-between our weather recording intervals... More about our weather records

Advertising

Prescott weather history for previous 24 hours

 ConditionsComfort  
Time TempWeatherWind HumidityBarometerVisibility
9:53 AM
Jul 24
88 °FScattered clouds.10 mph29%29.91 "Hg10 mi
8:53 AM85 °FPartly sunny.10 mph32%29.92 "Hg10 mi
7:53 AM81 °FPartly sunny.5 mph37%29.93 "Hg10 mi
6:53 AM77 °FScattered clouds.5 mph42%29.92 "Hg10 mi
5:53 AM75 °FPartly sunny.3 mph48%29.90 "Hg10 mi
4:53 AM77 °FPassing clouds.6 mph44%29.89 "Hg10 mi
3:53 AM78 °FOvercast.6 mph40%29.87 "Hg10 mi
2:53 AM77 °FPassing clouds.8 mph45%29.88 "Hg10 mi
1:53 AM79 °FOvercast.9 mph41%29.88 "Hg10 mi
12:53 AM80 °FPassing clouds.12 mph38%29.89 "Hg10 mi
11:53 PM
Jul 23
80 °FOvercast.7 mph38%29.90 "Hg10 mi
10:53 PM81 °FClear.13 mph37%29.90 "Hg10 mi
9:53 PM82 °FOvercast.21 mph34%29.89 "Hg10 mi
8:53 PM85 °FPassing clouds.6 mph29%29.88 "Hg10 mi
7:53 PM87 °FPassing clouds.8 mph25%29.87 "Hg10 mi
6:53 PM91 °FPartly sunny.10 mph21%29.85 "Hg10 mi
5:53 PM93 °FSunny.7 mph18%29.85 "Hg10 mi
4:53 PM93 °FPartly sunny.12 mph19%29.85 "Hg10 mi
3:53 PM95 °FPartly sunny.6 mph14%29.86 "Hg10 mi
2:53 PM94 °FPartly sunny.8 mph15%29.89 "Hg10 mi
1:53 PM96 °FPartly sunny.14 mph14%29.91 "Hg10 mi
12:53 PM95 °FPartly sunny.8 mph13%29.93 "Hg10 mi
11:53 AM94 °FScattered clouds.8 mph14%29.94 "Hg10 mi
Weather by CustomWeather, © 2014

See weather overviewHow to use our weather pages